Flag for Japan Weather past 2 weeks in Sendai, Japan

Now
75 °F

Passing clouds.


Feels Like: 75 °F
Forecast: 69 / 91 °F
Wind: 3 mph from Northeast

Location: Sendai Airport

Current Time: Jul 30, 2014 at 9:25:23 PM

Latest Report: Jul 30, 2014 at 8:00 PM


Visibility: N/A

Pressure: 29.92 "Hg

Humidity: 89%

Dew point: 72 °F

Location of SendaiLocation

Historic Weather in Sendai — Graph

°F

Sendai temperature yesterday

Maximum temperature yesterday: 81 °F (at 11:00 AM)
Minimum temperature yesterday: 66 °F (at 6:00 AM)
Average temperature yesterday: 75 °F

Past Weeks' High & Low Weather Summary

 TemperatureHumidityPressure
High91 °F (Jul 27, 12:00 PM)100% (Jul 16, 3:00 PM)30.01 "Hg (Jul 16, 3:00 PM)
Low66 °F (Jul 20, 6:00 AM)40% (Jul 28, 1:00 PM)29.56 "Hg (Jul 27, 1:00 PM)
Average76 °F82%29.83 "Hg
* Reported Jul 15 8:00 PM — Jul 30 8:00 PM, Sendai, Weather by CustomWeather, © 2014

Note: Actual official high and low records may vary slightly from our data, if they occured in-between our weather recording intervals... More about our weather records

Advertising

Sendai weather history for previous 24 hours

 ConditionsComfort  
Time TempWeatherWind HumidityBarometerVisibility
8:00 PM
Jul 30
75 °FPassing clouds.3 mph89%29.92 "HgN/A
7:00 PM77 °FPassing clouds.5 mph83%29.92 "HgN/A
6:00 PM77 °FScattered clouds.5 mph83%29.92 "HgN/A
5:00 PM77 °FPartly sunny.5 mph89%29.92 "HgN/A
4:00 PM79 °FScattered clouds.7 mph79%29.92 "Hg5 mi
3:00 PM79 °FScattered clouds.8 mph79%29.95 "HgN/A
2:00 PM79 °FPartly sunny.7 mph74%29.95 "HgN/A
1:00 PM77 °FPartly sunny.9 mph79%29.95 "Hg5 mi
12:00 PM77 °FPartly sunny.8 mph83%29.98 "HgN/A
11:00 AM75 °FFog.9 mph83%29.98 "Hg5 mi
10:00 AM75 °FPartly sunny.9 mph89%30.01 "Hg4 mi
9:00 AM75 °FPartly sunny.7 mph83%30.01 "Hg5 mi
8:00 AM75 °FPartly sunny.2 mph78%30.01 "Hg5 mi
7:00 AM72 °FClear.3 mph88%30.01 "Hg4 mi
6:00 AM68 °FClear.3 mph88%30.01 "Hg4 mi
9:00 PM
Jul 29
73 °FClear.2 mph89%29.98 "Hg10 mi
Weather by CustomWeather, © 2014

See weather overviewHow to use our weather pages